Flag for U.S.A. Weather past 2 weeks in Centennial, Colorado, U.S.A.

Now
77 °F

Passing clouds.


Feels Like: 78 °F
Forecast: 61 / 90 °F
Wind: 5 mph from North

Location: Centennial Airport

Current Time: Aug 1, 2015 at 10:22:47 AM

Latest Report: Aug 1, 2015 at 9:53 AM


Visibility: 10 mi

Pressure: 30.00 "Hg (24.46 "Hg at 1781m altitude)

Humidity: 37%

Dew point: 49 °F

Location of CentennialLocation

Historic Weather in Centennial — Graph

°F

Centennial temperature yesterday

Maximum temperature yesterday: 86 °F (at 12:53 PM)
Minimum temperature yesterday: 61 °F (at 3:53 AM)
Average temperature yesterday: 73 °F

Past Weeks' High & Low Weather Summary

 TemperatureHumidityPressure
High93 °F (Jul 27, 3:53 PM)96% (Jul 19, 4:53 AM)30.23 "Hg (Jul 19, 4:53 AM)
Low55 °F (Jul 18, 4:53 AM)13% (Jul 17, 12:53 PM)29.61 "Hg (Jul 27, 3:53 PM)
Average73 °F46%29.95 "Hg
* Reported Jul 17 8:53 AM — Aug 1 8:53 AM, Centennial, Weather by CustomWeather, © 2015

Note: Actual official high and low records may vary slightly from our data, if they occured in-between our weather recording intervals... More about our weather records

Advertising

Centennial weather history for previous 24 hours

 ConditionsComfort  
Time TempWeatherWind HumidityBarometerVisibility
8:53 AM
Sat, Aug 1
75 °FPassing clouds.8 mph43%30.01 "Hg10 mi
7:53 AM71 °FScattered clouds.9 mph49%30.01 "Hg10 mi
6:53 AM67 °FPassing clouds.8 mph61%30.01 "Hg10 mi
5:53 AM64 °FPassing clouds.9 mph68%30.01 "Hg10 mi
4:53 AM66 °FPassing clouds.12 mph61%30.00 "Hg10 mi
3:53 AM65 °FPassing clouds.12 mph63%30.01 "Hg10 mi
2:53 AM66 °FPassing clouds.9 mph61%30.01 "Hg10 mi
1:53 AM65 °FPassing clouds.9 mph61%30.02 "Hg10 mi
12:53 AM65 °FPassing clouds.8 mph61%30.04 "Hg10 mi
11:53 PM
Fri, Jul 31
67 °FPassing clouds.9 mph57%30.06 "Hg10 mi
10:53 PM67 °FPassing clouds.9 mph57%30.07 "Hg10 mi
9:53 PM68 °FPassing clouds.8 mph57%30.08 "Hg10 mi
8:53 PM70 °FScattered clouds.6 mph55%30.07 "Hg10 mi
7:53 PM74 °FScattered clouds.7 mph48%30.06 "Hg10 mi
6:53 PM79 °FScattered clouds.10 mph38%30.05 "Hg10 mi
5:53 PM80 °FBroken clouds.16 mph36%30.06 "Hg10 mi
4:53 PM81 °FBroken clouds.7 mph34%30.06 "Hg10 mi
3:53 PM83 °FBroken clouds.7 mph28%30.07 "Hg10 mi
2:53 PM82 °FPartly sunny.9 mph29%30.08 "Hg10 mi
1:53 PM85 °FScattered clouds.13 mph25%30.06 "Hg10 mi
12:53 PM86 °FPassing clouds.10 mph22%30.08 "Hg10 mi
11:53 AM83 °FPassing clouds.12 mph28%30.11 "Hg10 mi
10:53 AM80 °FPassing clouds.7 mph36%30.14 "Hg10 mi
Weather by CustomWeather, © 2015

See weather overviewHow to use our weather pages